Regional Weather Roundup
Issued by NWS

Home | Current Version | Previous Version | Text Only | Print | Product List | Glossary On
Versions: 1 2 3 4 5 6 7 8 9 10 11 12 13 14 15 16 17 18 19 20 21 22 23 24 25 26 27 28 29 30 31 32 33 34 35 36 37 38 39 40 41 42 43 44 45 46 47 48 49 50
000
ASUS43 KMKX 130721
RWRWI

WISCONSIN REGIONAL WEATHER ROUNDUP
NATIONAL WEATHER SERVICE MILWAUKEE/SULLIVAN WI
200 AM CDT SUN JUL 13 2014

NOTE: "FAIR" INDICATES FEW OR NO CLOUDS BELOW 12,000 FEET WITH NO
SIGNIFICANT WEATHER AND/OR OBSTRUCTIONS TO VISIBILITY.

WIZ001-002-006>008-014>016-023>028-130800-
NORTHWEST WISCONSIN

CITY           SKY/WX    TMP DP  RH WIND       PRES   REMARKS
SUPERIOR ARPT  PTCLDY    60  55  84 W8        29.87R
ASHLAND        PTCLDY    61  54  77 SW5       29.84F
HAYWARD        MOCLDY    64  59  83 VRB3      29.87S
SIREN          CLEAR     60  57  89 NW3       29.90S
RICE LAKE      FOG       58  57  96 CALM      29.89F VSB 3/4
LADYSMITH      CLEAR     64  63  95 SW5       29.89F
EAU CLAIRE     CLEAR     64  63  96 SW5       29.87F
MENOMONIE      SUNNY     64  63  97 SW5       29.88F FOG
NEW RICHMOND   CLEAR     63  63  98 SW6       29.90S
OSCEOLA        CLEAR     62  62 100 SW6       29.91F
$$

WIZ003>005-009-010-017-018-130800-
NORTH CENTRAL WISCONSIN

CITY           SKY/WX    TMP DP  RH WIND       PRES   REMARKS
WOODRUFF       PTCLDY    63  61  92 W6        29.85F
RHINELANDER    CLOUDY    62  61  96 W12       29.86F
EAGLE RIVER    CLOUDY    61  61  99 W6        29.84F
LAND O LAKES   PTCLDY    63  61  93 W7        29.84F
PHILLIPS       PTCLDY    62  61  98 SW5       29.86F
TOMAHAWK       CLOUDY    61  60  96 W5        29.87F
MEDFORD        CLOUDY    62  62  99 W9        29.88F FOG
MERRILL        CLEAR     62  61  98 W7        29.87F
$$

WIZ029-030-035-036-043>047-130800-
CENTRAL WISCONSIN

CITY           SKY/WX    TMP DP  RH WIND       PRES   REMARKS
WAUSAU         MOCLDY    63  61  93 NW8       29.86F
MOSINEE        CLEAR     61  61 100 W9        29.88F
MARSHFIELD     FOG       62  61  96 W10       29.88F VSB 3/4
STEVENS POINT  CLEAR     60  59  96 W5        29.87F
WAUPACA        CLEAR     65  63  91 W10       29.86S
WAUTOMA        CLOUDY    64  63  97 NW10      29.88S
WISC RAPIDS    CLEAR     62  61  96 W5        29.89F
CAMP DOUGLAS   NOT AVBL
$$

WIZ011>013-019>022-031-037>040-048>050-130800-
NORTHEAST WISCONSIN

CITY           SKY/WX    TMP DP  RH WIND       PRES   REMARKS
ANTIGO         PTCLDY    59  59  99 W6        29.87F
STURGEON BAY   CLEAR     63  59  88 W5        29.81F
GREEN BAY      CLEAR     63  62  97 W5        29.83S
MANITOWOC      CLEAR     63  61  93 CALM      29.83F
APPLETON       CLEAR     63  61  94 W10       29.85S
CLINTONVILLE   CLEAR     63  59  88 W5        29.84F
OSHKOSH        CLEAR     64  63  96 VRB3      29.84F
$$

WIZ032>034-041-042-053>061-130800-
SOUTHWEST WISCONSIN

CITY           SKY/WX    TMP DP  RH WIND       PRES   REMARKS
LA CROSSE      CLEAR     63  62  97 SE6       29.90F FOG
SPARTA         CLOUDY    62  61  97 CALM      29.91F FOG
VIROQUA        CLOUDY    62  62 100 CALM      29.93S VSB 1/4
BOSCOBEL       MOCLDY    64  62  93 S3        29.91F
PRAIRIE DU CHI MOCLDY    65  63  94 CALM      29.92S
PLATTEVILLE    MOCLDY    64  62  95 NW5       29.94S
$$

WIZ056-057-062-063-064-067-068-130800-
SOUTH CENTRAL WISCONSIN

CITY           SKY/WX    TMP DP  RH WIND       PRES   REMARKS
BARABOO/DELLS  CLEAR     61  59  94 CALM      29.89F
LONE ROCK      PTCLDY    67  63  87 SW5       29.91F
WATERTOWN      MOCLDY    64  64  99 W7        29.88S
MADISON        MOCLDY    65  63  93 NW7       29.89F
MIDDLETON      CLOUDY    65  65 100 NW7       29.90S
MONROE         CLOUDY    64  64 100 NW5       29.91R
JANESVILLE     CLOUDY    66  64  94 NW7       29.89R
$$

WIZ051-052-058>065-066-070>072-130800-
SOUTHEAST WISCONSIN

CITY           SKY/WX    TMP DP  RH WIND       PRES   REMARKS
MILWAUKEE      MOCLDY    67  64  90 NW5       29.85F
WAUKESHA       CLOUDY    63  63 100 W6        29.87F
MILWAUKEE/TIMM CLOUDY    64  61  88 NW6       29.86S
RACINE         PTCLDY    67  64  90 NW3       29.86F
BURLINGTON     PTCLDY    65  63  95 NW5       29.86S
KENOSHA        PTCLDY    69  67  93 NW5       29.85R
FOND DU LAC    CLEAR     63  61  93 SW5       29.86F
SHEBOYGAN      CLEAR     64  61  90 W8        29.84S
WEST BEND      CLEAR     63  59  88 W7        29.86F
JUNEAU         CLOUDY    63  49  59 W5        29.88F HAZE
$$

LSZ147-162-130800-
LAKE SUPERIOR

STATION/POSITION TIME  TEMP    WIND        PRES    WAVE
                       AIR SEA DIR/SP/G            HT/PER
                 (UTC) (F)     (DEG/KT/KT) (MB)    (FT/S)
W MID LAKE BUOY  0650   46 38  270/ 10/ 12 1008.2F   1
PORT WING        0620   62     210/  5/  6 1010.5F
SAXON HARBOR     0600          290/  7/ 12 1010.5R
$$

LMZ867-665-643>646-130800-
LAKE MICHIGAN

STATION/POSITION TIME  TEMP    WIND        PRES    WAVE
                       AIR SEA DIR/SP/G            HT/PER
                 (UTC) (F)     (DEG/KT/KT) (MB)    (FT/S)
N MID LAKE BUOY  0650   58 58  190/  8/  8 1007.9F   1/ 3
NORTHPORT PIER   0600   65     280/  4/  7 1008.8S
SISTER BAY       0625   66     280/ 10/ 12   N/A
KEWAUNEE LAKESHO 0700   63     290/  5/  7 1010.4F
SHEBOYGAN LAKESH 0700   67     290/  9/ 11 1010.3R
PORT WASHINGTON  0640   65     290/  5/  7 1011.2F
MILWAUKEE LAKESH 0700   67     280/  5/  7   N/A
S MID LAKE BUOY  0650   64 58  270/ 10/ 10 1009.9F   2/ 4
KENOSHA   LAKESH 0700   70     310/  6/  9   N/A
$$

TC  - TEMPERATURE IN CELSIUS
VSB - VISIBILITY IN STATUTE MILES
WCI - WIND CHILL INDEX
HX  - HEAT INDEX



USA.gov is the U.S. government's official web portal to all federal, state and local government web resources and services.